Location: Eschentzwiller
(47.7125°N, 7.3981°E)
Time: 04:30:53
(UTC+00:00)

Cosmos 1992 Rocket - Pass Details

Date: 27 October 2020
Orbit: 759 x 766 km, 74.0° (Epoch: 01 December)

Event Time Altitude Azimuth Distance (km) Brightness Sun altitude
Rises 18:49:18 0° 211° (SSW) 3,207 7.5 -25.6°
Reaches altitude 10° 18:51:41 10° 214° (SW) 2,285 6.7 -26.0°
Maximum altitude 18:56:50 62° 296° (WNW) 853 4.4 -26.9°
Enters shadow 18:59:47 25° 9° (N) 1,496 5.5 -27.3°
